Regional Weather Roundup
Issued by NWS

Home | Current Version | Previous Version | Text Only | Print | Product List | Glossary On
Versions: 1 2 3 4 5 6 7 8 9 10 11 12 13 14 15 16 17 18 19 20 21 22 23 24 25 26 27 28 29 30 31 32 33 34 35 36 37 38 39 40 41 42 43 44 45 46 47 48 49 50
000
ASUS43 KDMX 291708
RWRIA

WEATHER ROUNDUP FOR IOWA
NATIONAL WEATHER SERVICE DES MOINES IA
1200 PM CDT FRI APR 29 2016

NOTE: "FAIR" INDICATES FEW OR NO CLOUDS BELOW 12,000 FEET WITH NO
SIGNIFICANT WEATHER AND/OR OBSTRUCTIONS TO VISIBILITY.

* - THESE STATIONS ARE NOT NWS STATIONS...THUS NOT UNDER NWS
QUALITY CONTROL.  THEY ALSO DO NOT REPORT WEATHER SUCH
AS PRECIPITATION OR FOG.

IAZ001>003-012>014-020>022-031>034-043>046-291800-
   NORTHWEST IOWA

CITY           SKY/WX    TMP DP  RH WIND       PRES   REMARKS
CARROLL *      CLOUDY    45  43  93 E8        30.11F
CHEROKEE *     CLOUDY    45  41  87 E10       30.14R
DENISON *      CLOUDY    45  41  87 E10       30.09F
LE MARS *      CLOUDY    43  39  87 E8        30.15R
ORANGE CITY *  CLOUDY    43  37  81 E8        30.14R
SHELDON *      CLOUDY    43  39  87 E13G22    30.13R
SIOUX CITY     CLOUDY    46  39  76 E10       30.14R
SPENCER        CLOUDY    45  38  76 E16       30.15R
STORM LAKE *   CLOUDY    43  39  87 E15       30.14R
$$

IAZ055>058-069>071-079>083-090>094-291800-
   SOUTHWEST IOWA

CITY           SKY/WX    TMP DP  RH WIND       PRES   REMARKS
ATLANTIC *     CLOUDY    46  41  81 NE10      30.08F
AUDUBON *      PTSUNNY   46  43  87 NE9       30.10F
CLARINDA *       N/A    N/A N/A N/A MISG        N/A
COUNCIL BLFS *   N/A     46  41  81 NE10G17   30.08S
CRESTON *      CLOUDY    48  43  81 E12       30.09S
HARLAN  *      CLOUDY    45  41  87 NE13      30.12F
LAMONI         CLOUDY    50  45  83 NE9       30.07S
RED OAK *      CLOUDY    48  41  76 E9        30.08F
SHENANDOAH *   CLOUDY    48  43  81 NE9G20    30.08F
$$

IAZ047>049-059>061-072>074-084-291800-
   CENTRAL IOWA

CITY           SKY/WX    TMP DP  RH WIND       PRES   REMARKS
AMES           CLOUDY    46  41  82 E10       30.12F
ANKENY *       CLOUDY    46  43  87 E9        30.11F
BOONE *        CLOUDY    45  41  87 NE13      30.11F
CHARITON *     CLOUDY    48  43  81 E13       30.08R
DES MOINES     CLOUDY    49  41  74 NE14      30.09F
GRINNELL*      CLOUDY    46  41  81 E5        30.13R
KNOXVILLE *    CLOUDY    48  43  81 NE13G18   30.07F
MARSHALLTOWN   CLOUDY    46  39  76 E9        30.12S
NEWTON *       CLOUDY    46  43  87 NE8       30.12S
PELLA *        CLOUDY    50  43  76 NE7       30.11F
$$

IAZ004>006-015-016-023>025-035-036-291800-
   NORTH CENTRAL IOWA

CITY           SKY/WX    TMP DP  RH WIND       PRES   REMARKS
ALGONA *       CLOUDY    43  39  87 E12G18    30.16R
CLARION *      CLOUDY    45  41  87 NE18      30.14S
ESTHERVILLE    CLOUDY    44  39  82 NE13      30.14R
FORT DODGE *   CLOUDY    45  36  70 NE15      30.14F
MASON CITY     CLOUDY    45  39  79 NE15      30.15R
FOREST CITY *  CLOUDY    45  37  76 NE9G18    30.15R
WEBSTER CITY * CLOUDY    46  39  76 E13       30.11F
IOWA FALLS *   CLOUDY    46  39  76 NE8       30.14S
$$

IAZ007>011-017>019-026>030-037>042-050>054-066-291800-
   NORTHEAST IOWA

CITY           SKY/WX    TMP DP  RH WIND       PRES   REMARKS
CEDAR RAPIDS   CLOUDY    46  41  82 SE7       30.12R
CHARLES CITY * CLOUDY    45  39  81 E13       30.15R
CLINTON *      CLOUDY    47  41  80 SE5       30.13R
DECORAH *      CLOUDY    46  37  71 E13G18    30.12S
DUBUQUE        CLOUDY    46  39  76 N8        30.11S
MONTICELLO *   CLOUDY    48  41  76 NE7       30.11S
OELWEIN *      CLOUDY    46  39  76 NE10      30.12
WATERLOO       CLOUDY    47  37  68 NE13      30.11F
$$

IAZ064-065-067-068-078-291800-
   EAST CENTRAL IOWA

CITY           SKY/WX    TMP DP  RH WIND       PRES   REMARKS
DAVENPORT      CLOUDY    46  40  79 SE7       30.13R
IOWA CITY      CLOUDY    46  40  79 E7        30.15R
MT. PLEASANT * CLOUDY    52  45  76 NE7       30.12R
MUSCATINE *    CLOUDY    48  41  76 NE6       30.13S
QUAD CITIES    CLOUDY    48  40  73 S6        30.12S
$$

IAZ062-063-075>077-085>089-095>099-291800-
   SOUTHEAST IOWA

CITY           SKY/WX    TMP DP  RH WIND       PRES   REMARKS
BURLINGTON     CLOUDY    49  44  83 N10       30.10R
FAIRFIELD *    CLOUDY    48  41  76 NE9       30.11S
FORT MADISON * CLOUDY    50  45  81 NE9       30.11R
KEOKUK *       CLOUDY    52  45  76 NE8       30.08S
OSKALOOSA *    CLOUDY    48  43  81 NE13      30.10F
OTTUMWA        CLOUDY    48  42  80 NE12      30.09F
WASHINGTON *   CLOUDY    48  45  87 N10       30.13S
$$

ABBREVIATIONS USED IN REMARKS
   TC - TEMPERATURES IN CELSIUS
  WCI - WIND CHILL INDEX
   HX - HEAT INDEX
  VSB - VISIBILITY
$$





USA.gov is the U.S. government's official web portal to all federal, state and local government web resources and services.